STARLINK-32848, 62808

Orbit data source: Space-Track

STARLINK-32848, 62808 is a payload satellite owned by SpaceX/Seattle (US) in LEO that was launched on Fri, 24 Jan 2025 UTC via an FALCON 9 launch vehicle from the Air Force Western Test Range (AFWTR). Payload-class satellites include a variety of spacecraft equipped with specific instruments for various scientific and technological missions. These include communications satellites like Starlink; space stations such as the ISS; scientific satellites like the Hubble; Earth observation satellites from companies like Planet Labs, Umbra, and HawkEye 360; GPS; miniature CubeSats for education and research; and military/defense satellites.

Loading next visibility...
Identifier
62808, 2025-018C
Orbit
LEO
Last TLE update
9 hours ago
Origin
Manufacturer
SpaceX/Seattle
Mission
Operational Commercial Communications
Bus & Motor
STARLINK V2M, Unknown motor
Mass
730 kg wet, ~700 kg dry
Launch date (UTC)
2025-01-24 (3 months ago)
Launch vehicle
FALCON 9
Launch site
Air Force Western Test Range (AFWTR)
Object type
Payload
Rocket body
Debris
Shape & HBR
Box + 2 Pan, 29 m
Radar Cross Section
33.884 m², Large (>1 m²)

Expand to show TLE details & history

TLE from 9 hours ago
0 STARLINK-32848
1 62808U 25018C   25128.91668981  .00061796  00000-0  15442-2 0  9993
2 62808  53.1595 286.5490 0001391  74.6175  77.9152 15.39583802  1301
Epoch: 2025-05-08T22:00Z
Definitive object data (Epoch: 2025-05-08T22:00:01.999Z)
Latitude
21.70244°
Longitude
-107.68861°
Altitude
447.762 km
Speed
7.647 km/s
True Right ascension
05h 57m 12s
True Declination
21° 34' 45"
Sunlit
Object was in daylight at TLE epoch
Visualization TLE readout
Latitude
52.04826°
Longitude
-165.02933°
Altitude
452.62 km
Speed
7.648 km/s
Apparent Right ascension
02h 44m 41s
Apparent Declination
8° 09' 51"
Sunlit
Object is in daylight
Visualization observer readout
Local Sidereal Time
15:16:20
Azimuth
10.456° NNE
Elevation
-41.366°
Doppler factor
1
Orbital elements
Apogee altitude
448.546 km
Perigee altitude
446.647 km
Semi-major axis
6,825.734 km
Eccentricity
0.0001391
Inclination
53.1595°
RAAN
286.549°
Arg. of periapsis
74.6175°
True anomaly
77.93079°
Mean anomaly
77.9152°
Eccentric anomaly
77.92299°
Mean motion
3.84875 °/min
BSTAR
0.0015442
Orbital period
93.54 mins
Loading maneuver chart data...
Loading SW <> Apogee altitude chart data...
Loading historical data...
Loading historical data...
Loading historical data...
Loading historical data...
Loading historical data...
Loading historical data...
Loading historical data...

STARLINK-32848 Visibility forecast

Observer location: undefined°, undefined°

Span
Click to sort rows by Start time (UTC) header in descending order
Start Az.
Max El. time (UTC)
Max El. Az.
Max El.
End time (UTC)
End Az.
6 mins2025-05-09 13:05:23.247Z221.22° SW2025-05-09 13:08:23.247Z171.997° S42.687°2025-05-09 13:11:23.247Z55.288° ENE
5 mins2025-05-09 19:39:23.247Z327.936° NNW2025-05-09 19:41:23.247Z56.918° ENE38.795°2025-05-09 19:44:23.247Z115.449° SE
|